www.pogodaiklimat.ru

Погода и климат >> Архив погоды >> Украина >> Вилково


ПОГОДА в Вилково

  • Прогноз погоды в Вилково
  • Монитор погоды в Вилково

АРХИВ ПОГОДЫ в Вилково

Время (UTC), дата Ветер
(напр.,м/с)
 
Видим.   Явления Облачность Т
(С)
Тd
(С)
f
(%)
Тe
(С)
Тes
(С)
Комфортность P
(гПа)
Po
(гПа)
Тmin
(С)
Tmax
(С)
R
(мм)
R24
(мм)
S
(см)
09 17.06 СВ 3 20 км ясно +30.4 +14.3 38 +32 +47 жарко 1014.5 1009.9
12 17.06 В 3 20 км 6/0
[Cc]
+29.7 +9.4 28 +29 +41 жарко 1013.8 1009.2
15 17.06 В 2 20 км 8/0
[Cc]
+29.8 +16.0 43 +33 +37 душно 1013.0 1008.4
18 17.06 В 1 20 км ясно +27.0 +18.1 58 +32 +32 очень
душно
1014.0 1009.4 +31.3
21 17.06 штиль 0 10 км 6/0
[Ac trans]
+23.6 +18.2 72 +28 +28 душно 1014.9 1010.2
00 18.06 С 2 10 км ясно +22.7 +15.9 65 +27 +27 душно 1015.0 1010.3
03 18.06 С 2 20 км ясно +21.6 +18.1 80 +26 +26 душно 1014.5 1009.8
06 18.06 С 3 20 км ясно +26.4 +18.6 62 +31 +38 душно 1014.8 1010.2 +21.5
09 18.06 С 2 20 км 1/1 600 м
[Cu hum]
+30.7 +13.8 36 +32 +49 жарко 1015.9 1011.3
12 18.06 В 2 20 км 3/3 600 м
[Cu hum]
+31.5 +15.6 38 +34 +45 душно 1015.2 1010.7
15 18.06 Ю 1 20 км 3/3 600 м
[Cu hum]
+29.8 +16.6 45 +33 +37 душно 1014.0 1009.4
18 18.06 С 1 20 км 4/0
[Ci fib]
+26.9 +16.2 52 +30 +30 душно 1014.0 1009.4 +32.0
21 18.06 С 1 10 км ясно +22.5 +16.4 68 +27 +27 душно 1014.8 1010.1
00 19.06 С 1 10 км 3/3 1000 м
[Sc]
+21.6 +16.7 74 +26 +26 душно 1014.4 1009.7
03 19.06 С 2 10 км 4/4 1000 м
[Sc]
+20.8 +19.2 91 +26 +26 душно 1014.5 1009.8
06 19.06 С 3 20 км ясно +26.2 +20.8 72 +33 +39 очень
душно
1013.9 1009.3 +20.7
12 19.06 В 3 20 км 4/4 600 м
[Cu hum]
+31.4 +19.6 50 +37 +45 очень
душно
1012.8 1008.3
18 19.06 штиль 0 20 км ясно +27.0 +18.2 59 +32 +32 очень
душно
1011.8 1007.2 +32.4
21 19.06 С 1 10 км 6/0
[Cc]
+25.4 +18.8 67 +30 +30 душно 1012.0 1007.4
00 20.06 С 1 10 км зарница 4/0
[Ac cast]
+23.4 +19.7 80 +30 +30 очень
душно
1011.6 1006.9
03 20.06 СВ 2 10 км 8/0
[Ac trans Ci fib]
+23.4 +20.3 83 +31 +31 очень
душно
1011.7 1007.0
06 20.06 СВ 2 20 км 8/6 600 м
[Cb cap Ci sp]
+26.6 +22.2 77 +35 +38 очень
душно
1011.7 1007.1 +22.6
09 20.06 СВ 2 20 км 8/0
[Ci sp]
+30.3 +21.5 59 +38 +53 опасность
солнечного
удара
1018.1 1013.5
12 20.06 СВ 3 20 км 6/0
[Ci fib]
+32.1 +19.0 46 +37 +49 очень
душно
1011.3 1006.8
15 20.06 В 1 20 км 4/0
[Ci sp]
+31.8 +17.0 41 +35 +40 очень
душно
1011.3 1006.8
18 20.06 штиль 0 20 км 8/0
[Cc]
+26.5 +19.9 67 +32 +32 очень
душно
1011.9 1007.3 +33.1
21 20.06 штиль 0 10 км ясно +24.6 +21.1 81 +31 +31 очень
душно
1012.0 1007.4
00 21.06 штиль 0 10 км зарница 8/8 600 м
[Sc]
+23.8 +20.6 82 +30 +30 очень
душно
1012.7 1008.0
03 21.06 СВ 1 20 км 6/0
[Cc]
+22.4 +20.0 86 +29 +29 очень
душно
1012.7 1008.0
06 21.06 С 1 20 км 8/0
[Ac trans Ci]
+28.0 +22.7 73 +37 +44 очень
душно
1013.2 1008.6 +22.3
09 21.06 В 1 20 км 8/0
[Ci]
+32.6 +16.5 38 +36 +53 опасность
солнечного
удара
1013.6 1009.1
12 21.06 В 2 20 км 6/0
[Ci]
+32.6 +17.4 40 +36 +50 очень
душно
1014.0 1009.5
15 21.06 СВ 1 20 км 3/0
[Ci]
+32.2 +14.7 35 +34 +39 душно 1013.3 1008.8
18 21.06 штиль 0 20 км 4/0
[Ci]
+27.8 +18.8 58 +33 +33 очень
душно
1013.8 1009.2 +34.1
21 21.06 С 1 10 км ясно +24.4 +17.4 65 +28 +28 душно 1013.9 1009.3
00 22.06 С 2 10 км 3/3 1000 м
[Sc]
+22.8 +18.9 79 +29 +29 очень
душно
1013.9 1009.2
06 22.06 С 2 20 км 9/9 600 м
[Cb cap]
+26.5 +20.6 70 +33 +34 очень
душно
1014.0 1009.4 +21.8
12 22.06 В 2 20 км 3/0
[Ci fib]
+32.5 +20.2 48 +39 +54 опасность
солнечного
удара
1014.6 1010.1
18 22.06 Ю 1 20 км 8/0
[Ci sp]
+26.3 +22.0 77 +34 +34 очень
душно
1014.6 1010.0 +33.6
00 23.06 ЮВ 2 10 км ясно +23.3 +22.1 93 +32 +32 очень
душно
1014.7 1010.0
06 23.06 З 1 20 км 3/0
[Cc]
+26.8 +22.7 78 +35 +44 очень
душно
1014.2 1009.6 +22.9
12 23.06 Ю 2 20 км 4/0
[Ac As]
+31.2 +17.0 43 +35 +46 очень
душно
1014.0 1009.5
18 23.06 штиль 0 20 км 8/0
[Ci sp]
+26.6 +22.5 78 +35 +35 очень
душно
1013.3 1008.7 +32.9

 

Местоположение метеостанции Вилково (Одесская область, Украина): широта 45.82 долгота 29.58 высота над уровнем моря 40 м.

В архиве по умолчанию представлена погода в Вилково за последнюю неделю. Архивные данные за месяц целиком и за предыдущие месяцы, начиная с января 2011 года, Вы можете получить, выбрав интересующий диапазон дат из раскрывающегося списка и нажав кнопку "Ввод!".


*Определитесь, кто Вы:
робот инопланетянин человек

Внимание! Время в таблицах - всемирное. Для получения местного времени необходимо прибавить поправку, которая равна 2 ч.

Смотрите также архив погоды в соседних городах и на ближайших метеорологических станциях:

Погода в Сарате (Одесская область, Украина) (23 км)
Погода в Чадыр-Лунге (Молдова) (61 км)
Погода в Белгород-Днестровском (Одесская область, Украина) (73 км)
Погода в Сулине (Румыния) (73 км)
Погода в Измаиле (Одесская область, Украина) (76 км)
Погода в Болграде (Одесская область, Украина) (76 км)
Погода в Горгове (Румыния) (78 км)
Погода в Штефан Водэ (Молдова) (78 км)
Погода в Комрате (Молдова) (91 км)
Погода в Махмудиа (Румыния) (91 км)

Пояснения к столбцам:

Ветер - указаны скорость ветра в м/с - средняя за 10 мин, порывы в срок и между сроками (в фигурных скобках) и направление, откуда дует ветер: С - северный, СВ - северо-восточный, В - восточный, ЮВ - юго-восточный, Ю - южный, ЮЗ - юго-западный, З - западный, СЗ - северо-западный.
Видимость - горизонтальная дальность видимости в метрах или километрах. При видимости от 1 до 10 км при отсутствии осадков обычно наблюдается дымка, при ухудшении видимости до 1 км и менее - туман. В сухую погоду видимость может ухудшаться дымом, пылью или мглою.
Явления - указаны атмосферные явления, наблюдавшиеся в срок или в последний час перед сроком; фигурными скобками обозначены явления, наблюдавшиеся между сроками (за 1-3 часа до срока); квадратными скобками обозначены град или гололедные отложения с указанием их диаметра в мм.
Облачность - указаны через наклонную черту общая и нижняя облачность в баллах и высота нижней границы облаков в метрах; квадратными скобками обозначены формы облаков: Ci - перистые, Cs - перисто-слоистые, Cc - перисто-кучевые, Ac - высококучевые, As - высокослоистые, Sc - слоисто-кучевые, Ns - слоисто-дождевые, Cu - кучевые, Cb - кучево-дождевые. Подробнее классификацию облаков см. в Атласе облаков (PDF).
T - Температура воздуха - температура, измеренная на высоте 2 м над землей.
Td - Температура точки росы - температура, при понижении до которой содержащийся в воздухе водяной пар достигнет насыщения.
f - Относительная влажность воздуха - влажноcть воздуха, измеренная на высоте 2 м над землей.
Te - Эффективная температура - температура, которую ощущает одетый по сезону человек в тени. Характеристика душности погоды. При расчете учитывается влияние влажности воздуха и скорости ветра на теплоощущения человека.
Tes - Эффективная температура на солнце - температура, которую ощущает человек, с поправкой на солнечный нагрев. Характеристика знойности погоды. Зависит от высоты солнца над горизонтом, облачности и скорости ветра. Ночью, в пасмурную погоду, а также при ветре 12 м/с и более поправка равна нулю.
P - Атмосферное давление - приведенное к уровню моря атмосферное давление.
Po - Атмосферное давление - измеренное на уровне метеостанции атмосферное давление.
Tmin - Минимальная температура - минимум температуры воздуха на высоте 2 м над землей.
Tmax - Максимальная температура - максимум температуры воздуха на высоте 2 м над землей.
R - Количество осадков - Количество выпавших осадков за период времени, мм. При наведении курсора мыши на число - период времени, за который выпало указанное количество осадков.
R24 - Количество осадков - Количество выпавших осадков за 24 часа, мм.
S - Снежный покров - Высота снежного покрова, см. При наведении курсора мыши на число - состояние снежного покрова и степень покрытия местности в баллах.